Content
SEND FEEDBACK

Daily
Averages
Monthly
Summary
Oman

SALALAH, OMAN


Home > Middle East > Oman
Elevation: 66 feet     Latitude: 17 00N     Longitude: 054 06E

WEATHER
 
SELECT A DAY
Number of Records: 183,825;   Date Range: 7/1/96 - 9/20/14
 
SHARE

PRINT THIS DATA

[ ← Previous Day ]
WEATHER ALMANAC - JANUARY 31, 2013
[ Next Day → ]
[ °C ]   °F
Weather ElementAverageHighLow
Temperature73.8 °F78.8 °F (12:50 pm)68 °F (4:50 am)
Dewpoint61.9 °F64.4 °F (4:50 pm)58 °F (1:00 am)
Humidity64.3 %73 % (4:50 am)51 % (1:00 pm)
Barometer29.93 in30.01 in (9:50 am)29.89 in (2:50 am)
Wind Speed4.9 mph11.5 mph (11:50 am)
Weather ElementAverage
Visibility6.2 mi
Wind DirectionESE (98.5 °)

Weather ElementTotal
Precipitation---
Cooling Degree Days8.4 (Base 65)
Growing Degree Days23.4 (Base 50)
Averaged from 31 records on January 31, 2013
WEATHER CONDITIONS BREAKOUT
WIND DIRECTION BREAKOUT
WEATHER BY HOUR - JANUARY 31, 2013
[ °C ]   °F
Local TimeTemperatureDewpointHumidityBarometerVisibilityWind DirectionWind SpeedGust SpeedPrecipitationEventsConditions
1:00 AM69.0 °F58.0 °F60 %29.93 in8.0 miCalm
1:50 AM69.8 °F59.0 °F68 %29.92 in6.2 miCalmScattered Clouds
2:50 AM69.8 °F59.0 °F68 %29.89 in6.2 miNNE (30°)2.3 mphMostly Cloudy
3:50 AM69.8 °F59.0 °F68 %29.89 in6.2 miCalmMostly Cloudy
4:00 AM69.0 °F58.0 °F61 %29.91 in6.0 miCalmMostly Cloudy
4:50 AM68.0 °F59.0 °F73 %29.89 in6.2 miCalm
5:50 AM69.8 °F59.0 °F68 %29.92 in6.2 miCalmMostly Cloudy
6:50 AM69.8 °F59.0 °F68 %29.92 in6.2 miCalmMostly Cloudy
7:00 AM69.0 °F60.0 °F64 %29.94 in7.0 miCalm
7:50 AM71.6 °F60.8 °F69 %29.95 in6.2 miCalmScattered Clouds
8:50 AM73.4 °F60.8 °F65 %29.98 in6.2 miCalmMostly Cloudy
9:50 AM75.2 °F62.6 °F65 %30.01 in6.2 miVariable3.5 mphMostly Cloudy
10:00 AM75.0 °F62.0 °F56 %30.01 in6.0 mi°3.5 mphMostly Cloudy
10:50 AM77.0 °F62.6 °F61 %29.98 in6.2 miSE (140°)9.2 mphScattered Clouds
11:50 AM77.0 °F62.6 °F61 %29.98 in6.2 miESE (120°)11.5 mphScattered Clouds
12:50 PM78.8 °F62.6 °F57 %29.95 in6.2 miSE (140°)11.5 mphScattered Clouds
1:00 PM78.0 °F63.0 °F51 %29.95 in6.0 miSE (140°)11.5 mphPartly Cloudy
1:50 PM77.0 °F62.6 °F61 %29.92 in6.2 miSouth (170°)11.5 mph
2:50 PM78.8 °F62.6 °F57 %29.89 in6.2 miSSE (150°)10.4 mphScattered Clouds
3:50 PM77.0 °F62.6 °F61 %29.89 in6.2 miSE (140°)9.2 mphScattered Clouds
4:00 PM77.0 °F63.0 °F53 %29.90 in6.0 miSSE (150°)11.5 mphPartly Cloudy
4:50 PM77.0 °F64.4 °F65 %29.89 in6.2 miSSE (160°)9.2 mphScattered Clouds
5:50 PM75.2 °F62.6 °F65 %29.89 in6.2 miSE (140°)8.1 mphPartly Cloudy
6:50 PM75.2 °F64.4 °F69 %29.92 in6.2 miSSE (160°)6.9 mphScattered Clouds
7:00 PM75.0 °F64.0 °F60 %29.93 in6.0 miSSE (160°)6.9 mphPartly Cloudy
7:50 PM75.2 °F64.4 °F69 %29.95 in6.2 miSSE (150°)5.8 mph
8:50 PM75.2 °F64.4 °F69 %29.95 in6.2 miSSE (150°)4.6 mphScattered Clouds
9:50 PM73.4 °F64.4 °F73 %29.95 in6.2 miSE (140°)3.5 mphScattered Clouds
10:00 PM74.0 °F64.0 °F63 %29.96 in6.0 miSE (140°)3.5 mphPartly Cloudy
10:50 PM73.4 °F64.4 °F73 %29.95 in6.2 miSE (140°)3.5 mphMostly Cloudy
11:50 PM73.4 °F64.4 °F73 %29.95 in6.2 miSE (140°)3.5 mphMostly Cloudy
Hourly data recorded from OOSA, located miles away from Salalah, Oman







STORIES FROM OUR PARTNERS